Rome Ciampino, Italy

7:33 PM CEST on October 17, 2017 (GMT +0200)
Ciampino

Weather History for LIRA - October, 2012

Change the Weather History Date:

Sunday, October 14, 2012

  Actual Average Record
Temperature  
Mean Temperature 63 °F -  
Max Temperature 71 °F 66 °F 84 °F (2000)
Min Temperature 55 °F 48 °F 44 °F (1998)
Degree Days  
Heating Degree Days 2    
Growing Degree Days 13 (Base 50)    
Moisture  
Dew Point 58 °F    
Average Humidity 84    
Maximum Humidity 94    
Minimum Humidity 64    
Precipitation  
Precipitation 0.00 in 0.14 in - ()
Sea Level Pressure  
Sea Level Pressure 29.80 in    
Wind  
Wind Speed 3 mph ()    
Max Wind Speed 9 mph    
Max Gust Speed -    
Visibility 6.2 miles    
Events      
Averages and records for this station are not official NWS values.
T = Trace of Precipitation, MM = Missing Value Source: Averaged Metar Reports

Daily Weather History Graph

Daily Weather History Graph

Search for Another Location

Airport or City:

Trip Planner

Search our weather history database for the weather conditions in past years. The results will help you decide how hot, cold, wet, or windy it might be!

Date:

Astronomy

Oct. 14, 2012 Rise Set
Actual Time 7:21 AM CEST 6:29 PM CEST
Civil Twilight 6:53 AM CEST 6:57 PM CEST
Nautical Twilight 6:20 AM CEST 7:29 PM CEST
Astronomical Twilight 5:48 AM CEST 8:02 PM CEST
Moon 5:59 AM CEST (10/14) 5:39 PM CEST (10/14)
Length of Visible Light 12h 04m
Length of Day
11h 08m
Waning Crescent, 2% of the Moon is Illuminated
Oct 14
Waning Crescent
Oct 15
New
Oct 22
First Quarter
Oct 29
Full
Nov 7
Last Quarter

Hourly Weather History & Observations

Time (CEST) Temp. Dew Point Humidity Pressure Visibility Wind Dir Wind Speed Gust Speed Precip Events Conditions
12:15 AM 59.0 °F 57.2 °F 94% 29.83 in 6.2 mi ESE 2.3 mph - N/A   Scattered Clouds
12:45 AM 57.2 °F 55.4 °F 94% 29.83 in 6.2 mi Calm Calm - N/A   Partly Cloudy
1:15 AM 57.2 °F 55.4 °F 94% 29.83 in 6.2 mi East 2.3 mph - N/A   Partly Cloudy
2:15 AM 55.4 °F 53.6 °F 94% 29.83 in 6.2 mi East 1.2 mph - N/A   Partly Cloudy
2:45 AM 57.2 °F 55.4 °F 94% 29.83 in 6.2 mi East 2.3 mph - N/A   Partly Cloudy
3:15 AM 55.4 °F 53.6 °F 94% 29.80 in 6.2 mi East 3.5 mph - N/A   Partly Cloudy
3:45 AM 57.2 °F 55.4 °F 94% 29.80 in 6.2 mi NE 3.5 mph - N/A   Partly Cloudy
4:45 AM 55.4 °F 53.6 °F 94% 29.80 in 6.2 mi East 1.2 mph - N/A   Partly Cloudy
5:15 AM 55.4 °F 53.6 °F 94% 29.80 in 6.2 mi Calm Calm - N/A   Partly Cloudy
5:45 AM 55.4 °F 53.6 °F 94% 29.80 in 6.2 mi ENE 1.2 mph - N/A   Partly Cloudy
6:15 AM 55.4 °F 53.6 °F 94% 29.80 in 6.2 mi East 2.3 mph - N/A   Partly Cloudy
7:15 AM 55.4 °F 53.6 °F 94% 29.80 in 6.2 mi ENE 1.2 mph - N/A   Partly Cloudy
7:45 AM 55.4 °F 53.6 °F 94% 29.80 in 6.2 mi East 3.5 mph - N/A   Partly Cloudy
8:15 AM 55.4 °F 53.6 °F 94% 29.80 in 6.2 mi ENE 4.6 mph - N/A   Partly Cloudy
8:45 AM 59.0 °F 57.2 °F 94% 29.80 in 6.2 mi SE 2.3 mph - N/A   Partly Cloudy
9:15 AM 64.4 °F 60.8 °F 88% 29.80 in 6.2 mi East 1.2 mph - N/A   Partly Cloudy
9:45 AM 64.4 °F 59.0 °F 83% 29.83 in 6.2 mi NE 1.2 mph - N/A   Partly Cloudy
10:15 AM 64.4 °F 59.0 °F 83% 29.83 in 6.2 mi North 2.3 mph - N/A   Scattered Clouds
10:45 AM 66.2 °F 60.8 °F 83% 29.83 in 6.2 mi NNW 3.5 mph - N/A   Scattered Clouds
11:15 AM 68.0 °F 59.0 °F 73% 29.83 in 6.2 mi Calm Calm - N/A   Scattered Clouds
11:45 AM 69.8 °F 60.8 °F 73% 29.83 in 6.2 mi SSW 1.2 mph - N/A   Scattered Clouds
12:15 PM 71.6 °F 60.8 °F 69% 29.83 in 6.2 mi South 8.1 mph - N/A   Scattered Clouds
12:45 PM 71.6 °F 59.0 °F 64% 29.83 in 6.2 mi South 6.9 mph - N/A   Scattered Clouds
1:15 PM 71.6 °F 59.0 °F 64% 29.80 in 6.2 mi SSW 5.8 mph - N/A   Scattered Clouds
1:45 PM 71.6 °F 59.0 °F 64% 29.80 in 6.2 mi South 9.2 mph - N/A   Scattered Clouds
2:15 PM 69.8 °F 59.0 °F 68% 29.80 in 6.2 mi SSW 5.8 mph - N/A   Scattered Clouds
2:45 PM 71.6 °F 60.8 °F 69% 29.80 in 6.2 mi SSW 8.1 mph - N/A   Scattered Clouds
3:15 PM 69.8 °F 62.6 °F 78% 29.80 in 6.2 mi South 9.2 mph - N/A   Scattered Clouds
3:45 PM 71.6 °F 62.6 °F 73% 29.80 in 6.2 mi SSW 6.9 mph - N/A   Scattered Clouds
4:15 PM 71.6 °F 60.8 °F 69% 29.80 in 6.2 mi SSW 6.9 mph - N/A   Scattered Clouds
4:45 PM 71.6 °F 62.6 °F 73% 29.77 in 6.2 mi SSW 6.9 mph - N/A   Partly Cloudy
5:15 PM 71.6 °F 60.8 °F 69% 29.77 in 6.2 mi SW 5.8 mph - N/A   Scattered Clouds
5:45 PM 69.8 °F 60.8 °F 73% 29.77 in 6.2 mi SW 5.8 mph - N/A   Scattered Clouds
6:15 PM 68.0 °F 60.8 °F 78% 29.77 in 6.2 mi SW 4.6 mph - N/A   Partly Cloudy
6:45 PM 68.0 °F 62.6 °F 83% 29.77 in 6.2 mi SW 3.5 mph - N/A   Partly Cloudy
7:15 PM 66.2 °F 62.6 °F 88% 29.77 in 6.2 mi South 3.5 mph - N/A   Partly Cloudy
7:45 PM 66.2 °F 62.6 °F 88% 29.77 in 6.2 mi South 3.5 mph - N/A   Partly Cloudy
8:15 PM 64.4 °F 60.8 °F 88% 29.77 in 6.2 mi SSE 3.5 mph - N/A   Partly Cloudy
8:45 PM 64.4 °F 60.8 °F 88% 29.77 in 6.2 mi South 2.3 mph - N/A   Partly Cloudy
9:15 PM 64.4 °F 62.6 °F 94% 29.77 in 6.2 mi South 3.5 mph - N/A   Partly Cloudy
9:45 PM 62.6 °F 59.0 °F 88% 29.77 in 6.2 mi SE 5.8 mph - N/A   Partly Cloudy
10:15 PM 60.8 °F 59.0 °F 94% 29.77 in 6.2 mi East 3.5 mph - N/A   Partly Cloudy
10:45 PM 62.6 °F 59.0 °F 88% 29.77 in 6.2 mi East 4.6 mph - N/A   Partly Cloudy
11:15 PM 60.8 °F 59.0 °F 94% 29.77 in 6.2 mi East 2.3 mph - N/A   Partly Cloudy
11:45 PM 60.8 °F 57.2 °F 88% 29.77 in 6.2 mi ESE 1.2 mph - N/A   Partly Cloudy